Simultaneous Nadir Overpasses (SNOs) Predictions

Prediction of SNOs between AQUA and GOES-15 Satellite Orbit:

Table of predicted SNOs for the next 14.0 days since TLE Epoch: 5/24/2019
Index Date Time (AQUA) AQUA Lat,Lon GOES-15 Lat,Lon Distance(km) Time Diff (sec)
1 05/25/2019 10:01:10 -0.42,-126.43 0.03,-128.44 229.18 80
2 05/25/2019 22:22:35 -0.66,-131.63 -0.02,-128.45 360.93 80
3 05/27/2019 22:10:23 -0.06,-128.66 -0.02,-128.45 24.43 80
4 05/29/2019 21:58:11 0.55,-125.70 -0.02,-128.45 311.64 80
5 05/30/2019 10:19:26 0.54,-130.86 0.01,-128.44 275.32 80
6 06/01/2019 10:07:14 -0.08,-127.90 0.01,-128.43 60.01 80
7 06/03/2019 09:55:03 -0.75,-124.95 0.01,-128.42 394.37 80
8 06/03/2019 22:16:27 -0.33,-130.15 0.01,-128.41 197.13 80
9 06/05/2019 22:04:15 0.29,-127.19 0.01,-128.39 136.45 80
10 06/06/2019 10:25:30 0.80,-132.35 -0.02,-128.38 450.48 80




NCC Satellite Simultaneous Nadir Overpasses (SNOs) Prediction Service
